Temperature
25 23 22 22 23 23 23 22 22 22 22 20 19 18 18 18 18 18 18 18 18 18 18 18 18 18 18 18 18 18 18 18 18 18 17 17 17 17 16 16 16 16 16 15
23 23 24 25 24 24 23 22 21 21 21 20 18 18 18 18 18 18 18 18 19 18 18 19 19 19 19 18 18 18 18 18 18 17 17 17 16 16 16 16 15 15 15 14
24 24 25 25 24 24 22 21 21 20 20 20 19 17 17 17 17 18 19 19 19 19 19 19 19 19 19 19 18 18 18 18 17 17 17 16 16 16 15 15 15 15 14 14
24 25 25 25 24 24 22 23 23 21 19 17 18 17 17 17 17 18 19 19 19 19 19 19 19 19 19 19 18 18 17 17 17 16 16 16 15 15 14 14 14 14 14 14
23 24 25 25 25 25 23 23 22 21 18 17 17 17 16 16 16 17 18 19 20 20 20 20 20 20 19 19 18 17 17 16 16 15 15 15 14 14 13 13 13 13 13 13
24 25 25 25 26 25 23 21 19 17 17 17 17 17 17 16 16 17 18 20 20 20 20 20 20 19 19 18 18 17 16 16 15 15 14 14 14 13 13 12 12 12 12 12
23 25 25 26 25 24 22 20 19 19 17 17 17 17 17 17 18 18 19 20 21 20 20 20 20 19 19 18 17 17 16 16 15 15 14 14 13 13 12 12 12 11 11 11
22 23 25 26 26 25 24 21 20 20 18 17 17 17 17 18 19 19 20 20 20 20 20 20 19 19 18 18 17 16 16 15 14 14 13 13 12 12 12 11 11 11 11 11
22 23 26 27 27 26 24 22 21 18 17 16 17 17 18 19 19 19 20 20 20 20 20 19 19 18 18 17 16 16 15 14 14 13 13 12 12 11 11 11 11 11 10 10
23 24 25 26 25 25 24 23 19 19 18 18 18 18 17 19 19 19 19 20 20 20 19 19 18 18 17 16 16 15 14 14 13 12 12 12 11 11 11 10 10 10 10 10
23 22 23 24 24 24 24 23 20 18 18 18 18 18 19 19 18 18 19 20 20 20 19 19 18 17 17 16 15 14 14 13 12 12 12 11 11 10 10 10 10 9 9 9
23 19 21 23 24 24 24 23 20 20 19 17 17 18 20 19 19 19 20 20 20 19 19 18 17 17 16 15 14 14 13 12 12 11 11 11 10 10 10 10 9 9 9 9
23 20 20 21 21 23 24 24 21 18 17 17 17 19 19 19 19 20 20 20 19 19 18 17 17 16 15 14 14 13 12 12 12 11 11 10 10 10 10 9 9 9 9 9
22 20 20 21 21 22 23 24 23 20 18 19 19 19 19 18 18 19 20 19 19 18 17 17 16 15 14 14 13 12 12 12 11 11 10 10 10 10 9 9 9 9 9 9
22 22 23 23 23 24 24 24 24 22 20 19 19 18 18 18 18 19 19 19 18 17 17 16 15 15 14 13 13 12 12 11 11 11 10 10 10 9 9 9 9 9 8 8
21 23 23 23 24 24 24 24 24 24 22 21 19 19 19 20 20 19 18 18 17 17 16 16 15 14 13 13 12 12 11 11 11 10 10 10 9 9 9 9 8 8 8 8
20 21 21 21 22 23 22 23 24 23 23 21 20 19 19 18 18 18 18 18 17 17 16 15 14 14 13 12 12 11 11 11 10 10 10 9 9 9 9 8 8 8 8 8
20 19 18 19 21 22 21 23 23 22 21 20 19 19 18 18 18 18 18 18 17 16 16 15 14 13 13 12 12 11 11 10 10 10 9 9 9 9 8 8 8 8 8 8
20 20 19 19 20 21 22 23 23 21 20 20 19 18 18 18 17 17 18 17 17 16 15 15 14 13 12 12 11 11 11 10 10 10 9 9 9 8 8 8 8 8 8 8
20 19 19 19 20 20 21 23 24 20 19 20 20 19 19 18 15 16 18 17 17 16 15 14 14 13 12 12 11 11 10 10 10 9 9 9 8 8 8 8 8 8 8 8
21 20 19 19 19 20 21 24 24 21 19 21 22 21 21 18 17 19 18 17 17 16 15 14 13 13 12 11 11 10 10 10 9 9 9 9 9 8 8 8 8 8 8 8
20 20 19 18 19 20 22 23 21 21 22 22 22 22 21 21 20 19 18 17 17 16 15 14 13 13 12 11 11 10 10 10 9 9 9 9 9 8 8 8 8 8 8 8
20 19 18 18 19 22 25 25 25 25 23 23 22 22 21 20 20 19 18 17 17 16 15 14 13 12 12 11 10 10 10 10 9 9 9 9 9 9 8 8 8 8 8 7
21 21 20 20 20 23 25 25 25 25 24 23 23 22 21 21 20 19 18 18 17 16 15 14 13 12 12 11 10 10 10 9 9 9 9 9 9 9 9 8 8 8 8 7
21 22 20 20 21 23 25 25 25 24 24 23 23 22 22 21 20 19 19 18 17 16 15 14 13 12 12 11 10 10 10 9 9 9 9 9 9 9 9 9 8 8 8 7
20 21 20 20 22 20 24 25 25 24 24 23 23 22 21 21 20 20 19 18 17 16 15 14 13 12 12 11 10 10 10 9 9 9 9 9 9 9 9 9 9 8 8 8
Wind_Speed
1 3 3 5 4 5 1 1 3 3 6 9 12 10 6 5 5 3 3 4 5 4 4 5 5 6 6 5 5 5 5 4 4 3 3 3 3 3 3 3 3 2 2 2
4 3 6 3 2 2 2 1 1 4 6 7 10 8 4 4 1 2 4 5 5 5 5 5 5 5 5 5 5 5 5 4 4 2 2 1 0 1 1 2 4 5 4 4
3 5 2 2 3 0 2 4 5 4 3 7 6 3 3 2 2 3 3 5 6 8 8 8 7 7 6 7 7 7 7 5 4 3 2 2 3 3 3 4 4 4 5 6
2 3 1 2 5 2 3 7 9 9 6 2 2 2 4 4 5 5 4 4 7 8 8 8 9 8 8 8 7 7 6 5 4 4 3 2 1 1 3 3 3 6 6 7
4 3 2 3 4 2 4 5 7 7 6 4 3 2 5 3 4 6 5 6 7 9 10 10 10 9 7 6 5 5 5 4 3 3 4 3 2 3 3 3 5 5 6 6
5 3 3 4 3 4 7 7 8 6 5 3 2 2 4 4 6 5 5 7 8 8 8 7 5 4 3 4 4 5 5 4 3 4 3 4 4 4 4 5 5 5 5 5
8 5 2 1 2 3 6 6 3 4 4 1 2 0 6 7 7 7 7 6 6 5 5 5 5 5 4 5 5 4 4 3 3 3 4 4 5 5 5 5 5 5 4 5
3 6 4 2 3 3 2 8 6 3 3 1 2 2 7 7 7 7 6 5 2 4 5 6 6 5 5 5 5 4 3 2 2 3 4 5 5 4 4 5 5 5 5 6
3 5 5 2 2 4 3 1 6 7 5 4 2 4 7 5 5 5 5 4 4 5 6 6 5 5 5 5 3 3 3 2 2 3 4 5 5 5 5 6 6 5 5 6
5 2 5 4 6 6 4 4 6 5 4 3 3 4 5 7 8 6 6 6 6 6 6 6 5 5 4 3 2 2 2 2 3 4 4 4 5 6 6 6 6 7 7 7
4 3 5 5 3 2 4 5 5 4 6 6 4 5 6 10 9 9 8 8 8 8 7 5 5 4 3 3 2 1 1 2 3 4 4 5 5 6 6 6 7 7 7 7
2 5 2 5 5 2 3 4 6 4 1 4 5 5 3 9 9 10 9 8 8 8 6 5 4 3 2 2 2 2 3 3 4 5 5 5 6 6 6 7 8 8 8 8
4 6 4 8 9 5 1 2 5 7 5 5 5 3 2 7 8 8 9 9 8 7 6 4 2 2 2 3 4 4 4 5 5 5 5 6 7 7 8 8 8 8 8 9
5 5 5 5 7 5 4 2 3 6 5 4 7 8 6 7 8 8 9 9 8 7 6 4 2 2 4 4 5 5 5 5 5 5 5 7 8 8 8 9 9 9 9 9
5 3 2 4 5 3 4 2 2 5 8 8 8 10 10 10 10 10 9 8 7 6 5 4 3 3 4 5 5 5 5 5 5 5 7 8 8 8 8 8 9 9 9 10
4 4 1 5 6 6 5 2 2 3 5 8 9 6 7 7 6 6 7 8 7 5 4 3 2 3 4 5 5 5 5 6 5 6 7 8 8 8 8 9 9 9 9 9
3 5 3 4 7 5 4 3 2 3 4 8 7 7 6 6 7 7 7 7 7 6 4 3 3 4 5 5 5 5 6 6 6 7 8 8 8 8 9 10 9 9 9 9
8 6 4 1 5 3 7 4 5 7 4 6 8 7 8 8 7 6 8 8 7 6 5 4 4 4 4 4 4 5 5 6 7 7 8 8 8 9 9 9 10 10 9 9
8 8 5 3 1 5 6 3 4 7 3 4 9 8 8 7 4 2 6 7 8 7 5 4 4 3 3 4 5 5 6 7 7 8 8 9 9 10 10 10 11 10 9 9
6 6 6 4 3 5 7 4 6 9 2 5 9 9 8 8 2 5 6 7 7 6 4 3 3 2 3 5 5 5 7 7 8 8 8 9 9 10 11 11 11 10 9 10
2 2 4 5 5 7 8 5 5 3 8 9 9 9 9 8 7 6 8 8 7 6 5 3 2 2 4 5 4 5 7 8 8 8 8 9 9 10 10 9 9 9 9 9
7 4 4 4 3 7 8 4 7 9 7 9 10 10 9 9 7 8 9 9 7 5 3 3 1 3 5 5 4 6 7 8 7 8 8 9 10 10 10 9 10 9 8 8
3 7 6 7 8 9 8 10 9 9 9 9 10 10 11 10 9 9 9 8 6 5 4 3 2 4 5 5 4 6 7 7 7 8 9 10 11 10 9 9 10 9 8 6
5 3 3 3 7 7 6 6 7 9 10 10 10 11 11 10 10 9 8 7 6 4 3 3 2 4 6 6 6 6 7 6 7 8 9 9 10 11 10 8 7 7 7 7
7 2 1 3 6 3 3 6 9 8 8 10 10 10 12 12 10 10 8 8 7 5 4 3 3 5 6 6 7 7 6 5 7 8 9 9 9 9 10 9 7 7 7 7
5 4 4 6 8 6 7 7 8 10 11 12 12 10 10 11 11 10 9 8 7 6 4 4 4 5 6 6 6 6 5 5 6 8 8 8 8 8 8 8 9 9 9 10
Wind_Direction
348 97 240 233 194 189 276 324 357 24 42 62 70 66 42 35 43 67 102 114 124 133 137 131 132 128 124 117 111 108 100 83 70 54 46 36 6 351 352 345 339 318 293 272
14 288 249 222 218 114 84 79 44 37 46 75 82 72 26 30 324 242 175 165 159 167 165 163 161 162 158 156 154 148 139 129 115 108 109 129 235 311 331 354 354 350 330 307
197 258 313 331 304 111 175 183 178 152 86 84 97 54 322 313 295 272 212 183 186 188 186 188 190 195 190 186 183 172 169 157 144 130 97 48 32 12 2 350 335 326 318 303
259 269 325 288 274 210 235 198 171 155 128 94 142 184 269 268 280 257 233 205 208 205 194 195 197 198 201 203 188 174 169 159 152 132 116 114 110 281 272 276 292 307 310 305
263 237 257 249 247 192 197 160 136 131 115 83 32 110 281 301 278 264 250 234 224 213 200 199 201 202 205 198 174 166 155 157 162 155 153 155 201 233 261 284 302 307 309 307
267 250 213 226 256 150 127 93 73 67 81 64 282 162 273 241 236 254 251 242 231 218 203 198 192 157 134 125 132 144 151 174 185 182 186 194 218 243 269 291 298 302 303 307
331 326 294 202 51 57 106 104 58 15 35 297 274 173 257 256 243 232 239 238 228 205 166 151 138 130 137 136 137 143 155 190 216 219 229 231 235 243 254 267 273 283 292 297
336 315 305 291 175 167 156 137 150 183 172 204 299 264 264 268 255 237 234 230 209 168 148 142 142 141 142 138 139 146 159 199 239 247 258 259 259 255 251 250 249 257 262 269
206 281 311 328 40 102 44 36 153 126 104 108 239 287 302 281 254 229 221 205 184 156 139 133 129 130 134 136 148 155 156 205 255 263 268 270 270 255 251 260 260 262 264 274
175 235 319 332 35 28 106 127 70 83 120 118 183 217 223 221 213 210 194 169 155 143 134 132 133 140 148 150 148 141 158 217 261 276 276 276 268 265 265 269 271 270 272 275
77 114 330 0 28 358 21 39 88 98 133 138 179 251 223 197 190 173 170 165 160 153 150 153 155 159 153 145 151 177 230 260 281 285 280 285 282 279 277 272 270 270 270 271
75 110 339 298 287 208 173 165 135 119 23 123 137 262 269 164 164 158 165 168 163 159 163 162 160 154 149 178 230 243 253 264 269 274 280 281 280 280 279 274 271 268 267 266
101 93 38 345 341 345 357 197 146 129 112 118 133 226 213 148 157 167 166 168 170 165 157 152 157 175 211 240 253 257 260 265 272 277 282 285 285 282 277 274 273 270 266 266
112 102 148 198 246 270 294 271 151 121 131 160 174 175 189 177 176 183 179 178 173 164 161 166 194 236 251 258 258 264 269 270 276 279 282 284 281 277 275 275 274 272 268 266
101 129 233 253 279 317 307 291 162 147 167 163 181 174 196 193 188 189 183 167 151 156 162 167 196 245 263 271 275 274 272 278 282 284 284 282 281 281 282 282 281 277 273 273
113 154 2 326 315 326 317 331 139 129 128 131 135 174 203 187 170 163 159 150 152 162 164 171 209 269 280 281 277 276 277 282 282 283 284 286 289 290 289 287 284 281 277 273
152 136 110 293 315 1 322 260 145 114 139 150 164 185 172 158 166 166 162 158 163 166 173 200 247 266 275 274 269 274 276 284 291 289 290 292 292 291 289 292 292 284 280 276
153 133 133 205 11 325 256 259 124 100 62 121 131 149 161 168 169 178 176 167 170 175 190 229 253 268 274 273 278 278 285 295 297 296 296 298 298 296 293 291 287 284 280 276
147 139 135 133 214 278 289 286 143 119 74 140 135 146 156 151 110 261 205 178 180 187 199 219 234 244 267 283 287 297 303 304 304 301 300 301 301 300 299 296 292 288 285 282
105 116 132 155 183 240 250 247 138 103 139 203 157 158 157 140 120 254 214 180 182 188 197 208 233 257 292 288 294 306 304 304 299 297 297 299 299 299 299 294 290 288 283 280
108 89 156 188 212 251 237 221 122 139 226 202 174 167 163 173 198 208 181 183 184 185 189 185 200 278 281 286 299 302 301 293 288 293 299 302 300 298 295 291 289 290 288 287
181 179 206 168 188 250 237 183 174 209 191 177 173 173 171 184 184 168 171 179 180 179 188 189 226 281 285 289 296 298 294 286 290 297 301 302 300 302 306 298 297 296 292 291
181 186 185 184 210 230 216 202 204 167 169 180 175 178 166 165 171 171 176 179 185 186 205 218 233 282 294 292 283 286 286 290 298 305 304 303 303 302 297 294 296 301 298 290
295 206 153 239 265 252 228 206 184 175 177 178 172 170 165 166 171 172 175 184 191 202 215 220 245 286 293 290 287 275 283 292 301 304 304 304 305 306 305 300 294 295 296 292
260 322 21 293 286 307 257 209 193 183 168 165 169 172 170 164 169 173 179 188 194 202 213 212 232 264 277 286 291 291 292 299 305 304 303 305 303 302 305 302 295 291 282 269
253 206 192 235 238 207 237 235 187 175 181 179 174 177 175 169 172 171 177 183 185 194 202 216 242 260 274 285 291 295 292 297 304 307 308 305 306 306 303 305 310 301 290 288
Height
1500 1506 1512 1509 1507 1509 1510 1513 1517 1515 1512 1516 1522 1527 1528 1526 1525 1526 1526 1526 1527 1528 1529 1529 1529 1529 1529 1529 1528 1528 1528 1528 1527 1527 1526 1526 1525 1524 1524 1522 1521 1520 1519 1518
1505 1508 1501 1500 1500 1503 1508 1514 1517 1516 1513 1519 1526 1531 1528 1526 1526 1526 1526 1525 1526 1529 1529 1530 1530 1529 1529 1529 1528 1528 1527 1527 1527 1526 1525 1524 1523 1522 1521 1519 1518 1517 1515 1514
1506 1503 1497 1498 1500 1504 1509 1514 1515 1518 1518 1521 1528 1537 1533 1528 1526 1526 1525 1525 1526 1527 1528 1528 1528 1528 1528 1527 1527 1526 1526 1525 1524 1524 1523 1522 1521 1519 1518 1516 1514 1513 1511 1509
1501 1496 1496 1498 1499 1501 1510 1502 1505 1513 1524 1536 1533 1546 1535 1529 1527 1524 1523 1524 1526 1526 1526 1526 1526 1526 1525 1525 1524 1524 1523 1523 1522 1521 1520 1518 1517 1515 1513 1511 1509 1507 1506 1504
1501 1494 1494 1497 1494 1495 1502 1499 1505 1514 1527 1537 1537 1543 1539 1530 1529 1524 1522 1522 1524 1524 1524 1524 1524 1524 1524 1523 1523 1522 1521 1520 1519 1518 1516 1515 1512 1510 1508 1506 1504 1502 1500 1499
1495 1490 1490 1490 1488 1491 1496 1505 1515 1524 1533 1548 1542 1543 1542 1532 1527 1521 1519 1520 1521 1522 1522 1522 1523 1523 1522 1522 1521 1520 1519 1518 1516 1515 1513 1511 1509 1506 1504 1501 1499 1497 1495 1494
1501 1492 1487 1487 1491 1493 1499 1517 1536 1540 1550 1551 1540 1541 1538 1522 1518 1518 1518 1518 1519 1521 1521 1521 1521 1521 1521 1520 1519 1518 1517 1516 1514 1512 1510 1508 1505 1502 1500 1497 1495 1493 1491 1489
1515 1511 1491 1485 1488 1494 1496 1508 1531 1541 1549 1551 1543 1542 1530 1517 1515 1515 1516 1518 1519 1519 1519 1519 1520 1520 1519 1519 1517 1516 1514 1513 1511 1509 1506 1504 1501 1499 1496 1494 1491 1488 1486 1484
1513 1510 1488 1483 1482 1486 1496 1503 1504 1525 1539 1551 1547 1537 1525 1516 1515 1515 1516 1517 1517 1518 1518 1518 1518 1518 1517 1516 1515 1513 1511 1509 1507 1505 1502 1500 1497 1494 1492 1489 1486 1484 1481 1479
1500 1507 1494 1486 1484 1486 1490 1495 1509 1525 1542 1549 1545 1540 1535 1521 1518 1515 1515 1516 1516 1517 1517 1517 1517 1516 1515 1514 1512 1510 1508 1506 1503 1501 1498 1495 1493 1490 1487 1484 1481 1478 1476 1473
1496 1507 1503 1495 1495 1496 1495 1498 1508 1522 1528 1544 1550 1542 1515 1514 1513 1514 1514 1514 1515 1515 1515 1515 1514 1513 1512 1510 1509 1506 1504 1502 1499 1496 1493 1491 1488 1485 1482 1479 1476 1473 1470 1468
1495 1508 1513 1502 1491 1488 1492 1496 1506 1522 1526 1532 1541 1539 1507 1509 1510 1511 1512 1513 1513 1514 1513 1513 1512 1510 1509 1507 1505 1503 1500 1497 1495 1492 1489 1486 1482 1479 1476 1473 1470 1467 1465 1462
1494 1510 1524 1520 1511 1495 1493 1492 1497 1510 1522 1530 1540 1533 1509 1508 1509 1509 1510 1511 1511 1511 1511 1510 1509 1507 1506 1503 1501 1499 1496 1493 1490 1487 1484 1481 1477 1474 1471 1468 1465 1462 1459 1456
1489 1507 1519 1526 1518 1501 1497 1492 1492 1504 1521 1523 1522 1520 1513 1510 1509 1509 1509 1509 1509 1509 1508 1507 1506 1504 1502 1500 1497 1495 1492 1489 1486 1483 1479 1476 1472 1469 1465 1462 1459 1456 1453 1450
1490 1503 1499 1499 1494 1491 1491 1490 1490 1496 1503 1513 1512 1513 1510 1507 1506 1506 1506 1506 1507 1506 1506 1504 1503 1501 1498 1496 1493 1491 1488 1485 1482 1478 1475 1471 1467 1464 1460 1456 1453 1450 1447 1444
1490 1498 1497 1500 1492 1491 1492 1487 1487 1489 1493 1500 1506 1508 1502 1502 1503 1504 1504 1504 1504 1503 1502 1501 1499 1497 1495 1492 1489 1487 1484 1481 1477 1473 1470 1466 1462 1458 1454 1450 1447 1443 1440 1437
1493 1498 1506 1510 1499 1496 1502 1489 1487 1489 1489 1494 1503 1503 1499 1502 1502 1501 1501 1501 1501 1500 1499 1497 1496 1493 1491 1488 1486 1483 1479 1476 1473 1469 1465 1461 1457 1453 1449 1444 1440 1437 1434 1431
1490 1498 1507 1511 1509 1514 1501 1481 1482 1488 1490 1489 1492 1495 1496 1497 1498 1499 1498 1498 1498 1497 1496 1494 1492 1490 1487 1485 1482 1479 1476 1472 1468 1465 1461 1456 1452 1447 1443 1439 1435 1431 1428 1424
1478 1491 1504 1513 1515 1509 1493 1483 1483 1490 1496 1491 1492 1494 1495 1496 1497 1497 1496 1495 1495 1494 1492 1491 1489 1487 1484 1481 1478 1475 1472 1468 1464 1460 1456 1452 1447 1442 1437 1433 1429 1425 1422 1418
1477 1483 1499 1508 1513 1515 1497 1480 1478 1486 1499 1490 1489 1490 1492 1493 1499 1496 1493 1492 1491 1490 1489 1487 1486 1483 1481 1478 1475 1471 1468 1464 1460 1456 1452 1447 1442 1437 1432 1428 1424 1420 1416 1412
1488 1492 1499 1505 1508 1500 1482 1476 1478 1497 1495 1484 1484 1485 1486 1488 1490 1489 1489 1489 1488 1487 1486 1484 1482 1480 1477 1474 1471 1468 1464 1461 1457 1452 1448 1443 1438 1433 1428 1424 1420 1416 1411 1407
1490 1496 1499 1503 1507 1500 1473 1474 1479 1480 1475 1477 1479 1481 1482 1483 1484 1485 1485 1486 1485 1484 1483 1481 1479 1477 1474 1471 1468 1464 1461 1457 1453 1449 1444 1439 1434 1429 1425 1420 1416 1411 1407 1402
1482 1483 1486 1489 1488 1471 1467 1467 1468 1468 1471 1473 1475 1477 1478 1479 1481 1481 1482 1482 1482 1481 1480 1478 1476 1474 1471 1468 1465 1461 1458 1454 1449 1445 1440 1435 1431 1426 1421 1417 1412 1407 1403 1398
1476 1471 1474 1475 1470 1465 1464 1464 1465 1465 1466 1468 1470 1472 1474 1475 1476 1477 1478 1479 1478 1478 1477 1475 1473 1470 1468 1465 1462 1458 1454 1450 1446 1442 1437 1432 1427 1422 1418 1413 1409 1404 1399 1394
1474 1471 1473 1474 1467 1463 1462 1461 1461 1462 1464 1465 1467 1468 1469 1470 1471 1473 1474 1474 1474 1474 1473 1471 1469 1467 1464 1461 1458 1455 1451 1447 1443 1438 1434 1429 1425 1420 1415 1411 1406 1401 1397 1392
1469 1469 1472 1472 1463 1462 1460 1459 1459 1459 1460 1461 1462 1464 1465 1465 1466 1467 1469 1470 1470 1470 1469 1468 1466 1463 1461 1458 1455 1452 1448 1444 1440 1435 1431 1426 1422 1417 1413 1408 1403 1399 1394 1390